Weather History for CXDK - December, 2012

Change the Weather History Date:

Saturday, December 8, 2012

  Actual Average Record
Temperature  
Mean Temperature -33 °F -  
Max Temperature -26 °F - - ()
Min Temperature -40 °F - - ()
Degree Days  
Heating Degree Days 98    
Moisture  
Dew Point -43 °F    
Average Humidity 63    
Maximum Humidity 71    
Minimum Humidity 45    
Precipitation  
Precipitation 0.00 in - - ()
Sea Level Pressure  
Sea Level Pressure 30.47 in    
Wind  
Wind Speed 14 mph ()    
Max Wind Speed 41 mph    
Max Gust Speed -    
T = Trace of Precipitation, MM = Missing Value Source: Averaged Metar Reports

Daily Weather History Graph

Daily Weather History Graph

Search for Another Location

Airport or City:

Trip Planner

Search our weather history database for the weather conditions in past years. The results will help you decide how hot, cold, wet, or windy it might be!

Date:

Astronomy

Dec. 08, 2012 Rise Set
Actual Time 10:18 AM MST 4:01 PM MST
Civil Twilight 9:18 AM MST 5:01 PM MST
Nautical Twilight 8:19 AM MST 6:00 PM MST
Astronomical Twilight 7:25 AM MST 6:54 PM MST
Moon 3:29 AM MST (12/8) 1:47 PM MST (12/8)
Length of Visible Light 7h 43m
Length of Day
5h 42m
Waning Crescent, 27% of the Moon is Illuminated
Dec 8
Waning Crescent
Dec 13
New
Dec 19
First Quarter
Dec 28
Full
Jan 4
Last Quarter

Hourly Weather History & Observations

Time (MST) Temp. Windchill Dew Point Humidity Pressure Visibility Wind Dir Wind Speed Gust Speed Precip Events Conditions
12:00 AM -37.8 °F -56.5 °F -45.6 °F 65% 30.48 in - North 5.8 mph - N/A   Unknown
1:00 AM -38.0 °F - -45.8 °F 65% 30.48 in - North 1.2 mph - N/A   Unknown
2:00 AM -34.6 °F -75.3 °F -42.0 °F 67% 30.48 in - North 35.7 mph - N/A   Unknown
3:00 AM -35.0 °F -56.8 °F -42.7 °F 66% 30.48 in - North 8.1 mph - N/A   Unknown
4:00 AM -37.3 °F -63.9 °F -45.0 °F 65% 30.50 in - North 11.5 mph - N/A   Unknown
6:00 AM -28.7 °F -69.2 °F -35.3 °F 70% 30.47 in - North 41.4 mph - N/A   Unknown
7:00 AM -26.3 °F -65.1 °F -33.0 °F 71% 30.48 in - North 39.1 mph - N/A   Unknown
8:00 AM -28.7 °F -51.8 °F -35.9 °F 68% 30.48 in - North 10.4 mph - N/A   Unknown
9:00 AM -30.3 °F -47.5 °F -37.5 °F 68% 30.48 in - North 5.8 mph - N/A   Unknown
10:00 AM -30.6 °F -70.7 °F -38.0 °F 68% 30.48 in - North 38.0 mph - N/A   Unknown
11:00 AM -35 °F - -43 °F 46% 30.48 in - Calm Calm - -  
11:00 AM -35.3 °F -55.5 °F -43.1 °F 66% 30.48 in - North 6.9 mph - N/A   Unknown
12:00 PM -35.7 °F -73.2 °F -43.8 °F 64% 30.49 in - North 27.6 mph - N/A   Unknown
1:00 PM -32.4 °F -60.9 °F -40.2 °F 66% 30.49 in - North 15.0 mph - N/A   Unknown
2:00 PM -32.3 °F -55.0 °F -40.0 °F 66% 30.48 in - North 9.2 mph - N/A   Unknown
3:00 PM -33.7 °F -71.0 °F -41.3 °F 66% 30.48 in - North 28.8 mph - N/A   Unknown
4:00 PM -37.3 °F -55.8 °F -45.2 °F 65% 30.48 in - North 5.8 mph - N/A   Unknown
5:00 PM -38 °F - -46 °F 45% 30.48 in - Calm Calm - -  
5:00 PM -37.8 °F -65.7 °F -45.9 °F 64% 30.48 in - North 12.7 mph - N/A   Unknown
6:00 PM -39.6 °F -74.5 °F -48.1 °F 62% 30.47 in - North 20.7 mph - N/A   Unknown
7:00 PM -39.5 °F -69.9 °F -47.7 °F 63% 30.48 in - North 15.0 mph - N/A   Unknown
8:00 PM -40.0 °F -64.5 °F -48.3 °F 63% 30.45 in - North 9.2 mph - N/A   Unknown
10:00 PM -39.5 °F - -47.7 °F 63% 30.45 in - North 1.2 mph - N/A   Unknown
11:00 PM -37 °F - -44 °F 48% 30.43 in - Calm Calm - -  
11:00 PM -36.9 °F -62.1 °F -44.5 °F 66% 30.43 in - North 10.4 mph - N/A   Unknown